Temperature
9 7 7 8 8 9 9 9 9 9 10 10 9 9 9 10 10 9 10 10 11 11 11 10 10 11 11 11 11 11 11 11 11 11 11 11 11 10 10 10 10 10 10 10
7 7 8 9 9 9 9 9 8 9 9 9 8 8 9 9 9 10 10 10 10 10 10 10 10 10 10 10 10 10 10 10 10 10 10 10 10 10 10 10 10 10 10 10
8 8 9 9 9 9 8 8 8 8 8 9 8 8 9 9 10 10 10 11 11 11 11 10 10 10 10 10 10 10 10 10 10 10 10 9 9 9 9 9 9 9 9 9
7 8 8 8 8 8 8 9 9 8 7 7 8 7 8 8 8 8 9 10 10 10 10 10 10 10 10 10 10 10 10 9 9 9 9 9 9 9 9 9 9 9 9 9
7 7 8 8 8 8 8 8 8 8 7 7 7 7 8 8 8 8 8 9 10 10 10 10 11 10 10 10 10 9 9 9 9 9 8 8 8 8 8 8 8 8 8 8
7 8 8 8 8 8 8 8 7 6 6 7 8 7 7 7 8 9 8 9 10 10 10 10 10 10 10 10 9 9 9 9 8 8 8 8 8 8 8 8 8 8 8 8
6 7 7 8 8 7 7 6 6 6 6 7 7 7 7 8 9 9 9 9 10 10 10 10 10 10 9 9 9 9 9 8 8 8 8 8 7 7 7 7 7 7 7 7
6 6 7 7 7 7 7 6 6 7 7 6 7 7 8 8 9 9 10 10 10 10 10 10 10 9 9 9 9 8 8 8 8 7 7 7 7 7 7 7 6 6 6 6
6 6 7 7 7 7 7 6 6 5 5 6 6 6 7 9 8 8 9 9 9 10 10 10 9 9 9 9 8 8 8 7 7 7 7 7 6 6 6 6 6 6 6 6
6 5 6 7 7 7 7 6 5 5 6 7 7 7 7 8 8 8 7 8 9 9 9 9 9 9 9 8 8 8 7 7 7 7 6 6 6 6 6 5 5 5 5 5
6 5 5 6 6 6 6 6 5 4 5 6 6 7 8 8 8 7 7 8 9 9 9 9 9 8 8 8 8 7 7 7 6 6 6 6 6 5 5 5 5 5 5 4
6 4 4 5 6 6 6 6 5 5 5 4 4 6 8 7 7 8 8 9 9 9 9 9 8 8 8 8 7 7 7 6 6 6 6 5 5 5 5 5 4 4 4 4
6 4 4 5 6 6 6 6 5 5 4 3 4 6 7 7 8 8 8 9 9 9 8 8 8 8 8 7 7 7 7 6 6 6 5 5 5 5 4 4 4 4 4 4
6 4 4 6 6 5 5 5 5 4 4 3 4 5 7 7 7 7 8 8 8 8 8 8 8 7 7 7 7 7 6 6 6 5 5 5 5 4 4 4 4 3 3 3
5 4 3 4 5 5 5 5 4 4 4 4 5 5 6 6 6 7 8 8 8 8 7 7 7 7 7 7 6 6 6 6 5 5 5 5 4 4 4 4 3 3 3 3
4 4 4 4 4 4 4 5 5 5 5 4 5 5 6 6 7 7 7 7 7 7 7 7 7 7 6 6 6 6 5 5 5 5 4 4 4 4 3 3 3 3 3 2
3 3 3 3 4 4 4 5 5 4 4 4 5 5 6 5 5 6 7 7 7 7 7 6 6 6 6 6 5 5 5 5 4 4 4 4 3 3 3 3 3 2 2 2
2 2 2 3 3 4 6 6 5 5 5 4 5 5 5 5 6 6 7 7 6 6 6 6 6 6 5 5 5 5 4 4 4 4 4 3 3 3 3 2 2 2 2 2
3 3 2 2 2 3 5 5 5 5 5 5 4 5 5 5 5 5 6 6 6 6 6 6 5 5 5 4 4 4 4 4 4 3 3 3 3 3 2 2 2 2 2 1
2 2 2 2 3 3 6 6 6 6 5 5 5 4 5 4 3 4 6 6 6 6 5 5 5 4 4 4 4 4 4 3 3 3 3 3 2 2 2 2 2 2 1 1
1 2 2 2 2 3 4 5 6 5 5 6 6 5 5 4 4 5 5 5 5 5 5 5 4 4 4 4 3 3 3 3 3 3 2 2 2 2 2 2 1 1 1 1
1 1 1 2 2 3 4 4 4 5 6 6 6 6 5 5 5 5 5 5 5 4 4 4 4 4 3 3 3 3 3 2 2 2 2 2 2 2 1 1 1 1 1 0
1 2 2 2 4 5 5 5 6 6 6 6 6 5 5 5 5 4 4 4 4 4 3 3 3 3 3 3 2 2 2 2 2 2 2 2 2 1 1 1 1 1 0 0
1 2 1 1 2 3 5 6 6 6 6 6 5 5 5 4 4 4 4 4 3 3 3 3 2 2 2 2 2 2 2 1 1 1 1 1 1 1 1 1 0 0 -0 -0
1 1 1 1 2 3 4 5 5 5 5 5 4 4 4 4 3 3 3 3 3 3 3 2 2 2 2 2 2 1 1 1 1 1 1 1 1 1 0 0 0 -0 -0 -1
1 2 2 2 3 3 4 5 5 4 4 4 3 3 3 3 3 3 3 3 2 2 2 2 2 2 1 1 1 1 1 1 1 1 1 1 1 1 0 0 -0 -0 -1 -1
Wind_Speed
3 5 1 2 2 2 3 2 2 4 2 1 5 8 9 5 5 7 7 7 7 7 5 6 6 5 5 4 3 2 2 1 1 2 1 1 2 2 3 3 5 6 6 6
5 2 3 1 1 2 1 1 2 3 2 1 3 7 8 6 6 8 10 10 9 7 5 5 5 5 4 4 4 3 2 1 0 0 0 1 1 1 2 2 4 5 5 6
2 2 2 2 3 3 2 1 2 2 4 3 3 6 4 4 3 4 6 8 9 10 9 8 7 6 5 4 4 3 3 2 1 1 1 1 2 2 2 3 3 4 5 5
1 2 2 3 2 1 1 2 0 1 3 3 2 3 6 4 3 5 6 7 8 8 8 8 7 6 6 5 4 4 3 2 2 1 1 1 1 1 2 2 3 4 5 5
2 2 3 2 2 1 2 2 1 0 1 2 1 2 7 3 4 7 7 8 8 8 9 9 8 8 6 5 4 3 3 2 2 1 1 1 1 2 2 3 4 4 4 4
2 2 0 1 2 1 1 3 4 4 3 2 3 4 6 4 7 6 6 7 7 8 8 7 6 6 5 4 4 3 3 2 2 2 2 2 2 2 3 3 4 4 3 4
4 3 2 1 2 4 4 5 4 4 3 5 2 3 8 7 6 7 7 8 7 7 7 7 7 6 6 5 5 4 4 3 3 3 3 3 3 3 3 3 3 4 4 4
1 4 3 1 1 1 0 3 4 3 4 5 4 5 7 6 4 2 4 5 6 6 6 7 8 7 7 7 6 5 5 4 4 3 3 3 3 2 2 3 3 3 3 4
2 4 3 1 1 2 2 2 3 4 0 3 5 6 7 2 2 1 3 4 5 5 6 7 7 7 7 7 7 7 6 5 5 4 4 3 3 3 3 3 3 3 3 4
3 2 4 3 1 1 2 4 4 3 2 3 5 5 5 5 4 3 3 4 5 4 5 6 6 6 6 6 6 5 6 6 5 4 4 3 3 3 3 3 3 4 4 4
2 2 4 2 3 4 2 2 3 2 3 3 4 7 5 5 5 6 6 6 6 6 6 6 5 5 5 5 5 5 5 5 4 4 4 3 3 3 3 3 4 4 4 4
2 3 3 6 4 3 4 5 5 3 4 4 3 8 6 4 4 5 5 5 5 5 5 5 5 4 4 5 5 5 5 5 5 5 4 4 4 3 3 4 4 4 4 4
3 3 2 5 3 1 3 4 4 3 3 4 5 8 4 2 2 3 3 5 4 5 4 4 4 4 5 5 5 6 6 6 5 5 4 4 4 4 4 4 4 4 4 4
3 4 6 7 6 3 5 6 5 5 5 6 9 11 9 8 7 7 7 6 5 5 5 5 4 5 5 5 5 5 6 6 5 5 5 5 5 5 5 4 4 4 4 4
3 4 6 9 9 6 9 12 10 11 10 11 11 12 15 11 9 8 7 6 5 5 5 6 5 5 5 5 5 5 5 5 5 5 6 6 6 5 4 4 4 4 4 5
2 4 3 6 7 8 12 15 15 14 12 14 15 17 13 9 7 7 7 6 6 6 6 6 5 5 5 6 5 5 5 5 5 6 7 6 5 4 4 4 4 4 4 4
4 4 2 5 4 5 10 11 12 8 9 10 14 13 6 5 6 7 7 6 6 6 6 6 6 6 6 6 6 6 6 5 5 6 6 5 5 5 5 4 4 4 4 4
7 5 3 3 2 8 8 3 7 8 9 9 8 7 6 6 6 6 6 6 6 5 5 6 6 6 6 6 6 6 5 5 6 6 6 5 5 5 5 4 5 5 4 4
9 7 4 3 5 9 9 5 4 6 6 6 7 8 6 4 4 5 5 5 6 6 6 6 6 6 6 6 6 5 5 5 6 7 7 6 6 6 5 5 5 4 4 4
4 6 5 4 5 7 7 2 1 2 5 4 4 5 5 1 3 6 5 4 5 5 5 5 5 4 5 6 5 5 6 6 8 8 8 6 6 6 6 6 5 4 4 4
4 5 8 8 8 9 7 3 2 3 6 3 4 4 4 5 6 6 6 5 5 5 5 4 4 4 5 5 4 5 6 8 8 7 6 5 6 6 6 5 4 4 4 3
9 7 8 6 7 10 5 5 6 7 4 4 4 4 5 6 6 6 6 6 6 5 5 4 4 6 5 5 4 6 8 8 6 5 6 6 6 5 4 4 4 4 4 4
9 9 7 10 10 5 5 7 6 4 5 5 5 5 5 6 7 6 6 6 6 6 6 5 5 6 6 5 5 7 8 6 5 5 6 6 5 5 4 4 5 3 3 3
6 5 5 7 9 8 8 8 7 7 7 7 6 7 6 8 8 7 7 7 6 6 6 5 5 6 7 6 6 7 6 5 5 6 6 5 5 5 4 4 4 4 4 5
7 5 5 9 10 8 8 8 8 7 7 7 7 7 7 8 8 8 7 7 7 6 6 5 6 7 8 7 7 6 5 4 5 5 5 5 5 5 4 4 5 5 6 6
7 9 9 12 10 8 9 7 7 7 8 8 7 8 7 7 8 8 8 7 6 6 6 5 6 7 7 7 7 6 5 5 5 5 5 4 4 4 4 4 4 6 6 8
Wind_Direction
27 61 52 239 210 202 183 178 249 267 283 251 236 255 264 240 209 216 212 196 191 191 184 166 158 154 143 139 135 137 128 76 56 48 35 18 355 345 348 353 359 357 354 354
39 17 274 261 338 33 96 139 293 309 330 282 273 276 266 242 215 209 203 199 194 185 174 168 164 161 161 164 163 164 175 179 90 90 191 206 265 297 306 335 355 354 354 353
122 265 308 35 13 29 14 192 233 279 340 5 359 311 283 270 228 207 200 196 191 185 184 184 180 179 174 182 184 183 193 193 209 178 74 34 19 351 342 340 337 338 342 343
26 329 37 51 11 40 298 296 250 80 39 314 46 295 285 268 261 226 211 197 196 191 187 188 185 184 186 193 190 188 190 194 207 167 140 159 220 272 280 300 306 318 329 330
333 348 43 45 319 339 243 304 311 78 99 336 307 200 283 281 250 244 222 207 204 197 191 191 191 190 190 187 184 192 192 201 205 191 188 200 247 260 284 302 310 318 321 326
291 305 60 227 299 290 324 22 32 47 72 299 238 185 275 242 230 243 224 212 204 195 191 190 187 176 179 180 181 186 187 206 212 209 214 209 235 265 291 306 312 315 316 322
345 336 339 26 24 15 50 69 29 2 1 255 258 206 251 258 245 225 213 209 202 191 184 181 181 183 188 189 191 190 190 213 221 220 230 232 235 243 257 280 295 306 314 316
10 305 302 340 150 171 246 130 152 206 242 285 306 237 256 279 284 229 185 178 182 188 190 190 194 194 198 200 195 193 199 216 217 218 231 238 236 235 252 264 273 284 292 297
169 271 309 279 221 155 144 173 172 141 228 275 277 285 299 284 354 62 131 150 179 195 201 203 203 200 201 202 203 203 206 216 215 215 217 226 233 235 252 265 269 277 286 297
158 265 294 308 18 310 171 155 104 127 188 267 286 274 256 263 253 234 199 198 210 210 214 217 212 208 209 209 212 209 210 215 216 213 216 226 232 237 248 259 267 274 284 294
152 184 306 329 216 210 167 160 145 150 177 190 266 270 233 234 225 213 218 214 210 214 219 221 223 220 216 215 213 214 217 220 222 219 216 222 233 239 249 256 264 269 277 285
151 138 261 262 257 225 197 193 161 172 234 205 223 267 274 244 229 209 220 226 227 224 222 223 225 223 222 224 223 223 223 222 222 217 213 220 227 233 247 258 265 269 274 279
144 132 334 332 331 284 231 214 187 162 169 196 213 261 302 325 289 261 254 256 255 243 233 230 227 228 231 234 232 230 228 226 223 213 213 222 226 231 245 256 264 267 270 279
137 176 198 221 233 210 245 246 216 182 207 229 230 253 279 284 279 280 273 258 251 243 238 233 233 237 240 240 238 236 238 231 223 214 215 224 230 231 240 251 259 262 265 271
139 222 235 252 259 251 250 251 234 225 220 228 248 249 260 259 258 261 264 265 261 254 244 234 235 241 244 250 252 246 245 238 222 217 221 229 231 230 237 248 255 260 264 268
171 228 256 273 263 257 263 255 242 238 235 240 256 265 264 267 260 259 260 258 254 249 244 243 243 244 246 247 250 251 249 242 223 221 227 229 227 232 238 246 252 260 267 272
192 191 238 270 296 315 269 242 223 217 216 213 237 251 268 273 266 258 253 246 242 248 249 244 244 244 246 247 242 243 243 239 228 229 232 228 226 231 237 244 249 256 263 271
187 181 209 266 323 251 248 236 202 216 240 225 236 254 255 255 265 257 243 232 242 251 252 254 253 252 252 248 245 242 240 233 230 233 234 230 225 230 235 237 244 252 261 258
195 183 198 214 248 273 283 262 199 202 259 228 234 258 272 284 317 294 262 235 236 246 250 250 250 253 256 256 249 241 239 235 232 233 235 232 224 226 229 237 244 249 252 249
158 170 189 203 229 247 252 254 188 120 274 249 227 257 273 313 304 281 271 264 260 256 256 255 257 260 259 262 250 237 242 237 238 238 235 230 222 221 227 235 240 244 238 242
153 184 208 220 238 261 255 239 121 193 253 261 237 240 238 228 238 259 280 277 263 260 264 263 260 261 259 262 252 247 248 245 246 243 236 229 222 223 227 231 236 237 233 238
182 187 200 196 220 250 222 152 188 228 264 257 245 236 240 248 260 266 271 272 274 273 272 266 264 270 267 256 243 251 256 258 255 240 232 230 226 225 226 225 230 222 219 233
203 198 196 203 221 246 202 211 238 248 251 248 242 251 247 252 261 267 268 271 272 270 269 262 258 269 271 257 239 248 260 262 254 238 233 232 228 225 219 216 217 216 216 226
240 209 210 245 258 263 263 265 269 258 249 249 249 257 250 252 257 265 268 272 273 271 269 265 263 267 273 267 254 249 259 256 245 241 238 229 223 227 224 220 212 212 218 225
223 201 229 257 271 283 268 252 257 266 265 266 266 260 252 250 257 258 263 267 267 270 268 260 258 262 268 270 268 262 257 248 244 243 236 228 223 222 223 226 222 220 223 221
216 218 232 255 252 248 268 267 267 267 267 262 265 269 262 246 251 257 260 262 262 265 266 266 263 264 268 268 269 266 256 240 236 243 236 226 221 220 220 226 243 242 237 245
Height
1508 1511 1514 1512 1510 1510 1510 1511 1513 1510 1506 1506 1506 1504 1500 1499 1500 1500 1500 1501 1502 1504 1507 1508 1509 1510 1511 1512 1512 1512 1512 1512 1512 1511 1510 1510 1509 1508 1507 1507 1506 1505 1504 1503
1513 1514 1511 1509 1508 1508 1509 1512 1512 1509 1506 1507 1507 1504 1498 1496 1496 1496 1497 1498 1500 1502 1504 1506 1508 1509 1509 1510 1510 1510 1510 1510 1510 1509 1508 1508 1507 1506 1505 1504 1503 1502 1501 1500
1514 1514 1510 1510 1510 1510 1511 1513 1512 1511 1509 1507 1508 1505 1499 1495 1494 1494 1494 1495 1497 1499 1501 1504 1505 1506 1507 1508 1508 1508 1508 1508 1508 1507 1506 1506 1505 1504 1503 1501 1500 1499 1498 1497
1515 1513 1511 1511 1512 1512 1513 1510 1510 1510 1515 1517 1513 1517 1501 1496 1494 1493 1493 1493 1495 1497 1499 1501 1503 1504 1505 1506 1506 1506 1506 1506 1505 1505 1504 1503 1502 1501 1500 1499 1497 1496 1495 1493
1517 1514 1513 1513 1513 1512 1512 1510 1511 1512 1515 1519 1516 1518 1506 1497 1495 1491 1490 1491 1492 1494 1496 1498 1500 1502 1503 1504 1504 1504 1504 1504 1503 1503 1502 1501 1499 1498 1497 1496 1494 1493 1491 1490
1516 1514 1514 1513 1512 1512 1512 1513 1513 1517 1520 1521 1513 1517 1508 1499 1491 1488 1487 1488 1490 1492 1494 1496 1498 1499 1500 1501 1501 1502 1501 1501 1501 1500 1499 1498 1497 1495 1494 1492 1491 1489 1488 1486
1519 1516 1514 1513 1513 1513 1514 1521 1528 1525 1529 1520 1512 1513 1504 1489 1486 1484 1484 1486 1487 1490 1492 1494 1495 1496 1497 1498 1499 1499 1498 1498 1498 1497 1496 1495 1494 1492 1491 1489 1487 1486 1484 1482
1523 1522 1516 1514 1515 1516 1517 1520 1528 1526 1526 1522 1513 1510 1497 1486 1483 1482 1482 1484 1486 1488 1490 1491 1493 1494 1495 1495 1496 1496 1496 1495 1495 1494 1493 1492 1490 1489 1488 1486 1484 1482 1481 1479
1524 1522 1516 1514 1514 1515 1517 1521 1520 1527 1528 1527 1516 1506 1493 1485 1484 1483 1483 1484 1485 1486 1488 1490 1491 1492 1492 1493 1493 1493 1493 1492 1491 1491 1490 1489 1487 1486 1484 1482 1481 1479 1478 1476
1520 1523 1518 1516 1514 1515 1515 1517 1523 1525 1524 1521 1514 1508 1499 1487 1485 1485 1484 1484 1484 1486 1488 1488 1489 1489 1490 1490 1490 1490 1489 1489 1488 1487 1486 1485 1484 1482 1481 1479 1477 1476 1474 1472
1519 1524 1522 1518 1516 1515 1516 1517 1519 1525 1525 1524 1519 1507 1488 1485 1483 1483 1483 1482 1483 1484 1485 1486 1486 1487 1487 1487 1487 1486 1486 1485 1484 1483 1482 1481 1480 1479 1477 1475 1474 1472 1470 1469
1519 1525 1526 1519 1513 1512 1513 1513 1518 1522 1522 1525 1524 1507 1482 1482 1481 1481 1481 1481 1482 1483 1483 1483 1484 1484 1484 1483 1483 1483 1482 1481 1480 1479 1478 1477 1476 1475 1473 1471 1470 1468 1467 1465
1518 1523 1525 1519 1518 1515 1513 1512 1513 1517 1521 1524 1521 1503 1482 1480 1480 1480 1480 1480 1480 1481 1481 1481 1480 1480 1480 1479 1479 1478 1478 1477 1476 1475 1474 1473 1472 1471 1469 1468 1466 1464 1463 1461
1515 1520 1522 1517 1512 1511 1511 1510 1510 1514 1518 1516 1509 1495 1484 1481 1480 1479 1479 1478 1478 1478 1477 1477 1476 1476 1476 1475 1475 1474 1473 1472 1471 1470 1469 1468 1467 1466 1465 1463 1462 1460 1459 1457
1515 1518 1517 1512 1508 1509 1507 1505 1505 1507 1505 1506 1495 1492 1480 1478 1478 1477 1476 1475 1474 1474 1474 1473 1473 1472 1472 1471 1471 1469 1468 1467 1466 1465 1464 1463 1463 1462 1461 1459 1458 1456 1454 1453
1514 1516 1514 1511 1506 1505 1503 1496 1496 1496 1495 1493 1489 1483 1474 1475 1474 1473 1472 1472 1471 1470 1470 1470 1469 1469 1468 1467 1466 1465 1464 1463 1462 1460 1459 1459 1458 1457 1456 1455 1453 1451 1450 1448
1513 1515 1514 1511 1506 1503 1498 1485 1485 1486 1483 1483 1482 1475 1472 1473 1471 1470 1469 1468 1467 1467 1466 1466 1465 1464 1464 1463 1461 1460 1459 1458 1457 1456 1454 1454 1453 1452 1451 1450 1448 1447 1445 1443
1509 1511 1513 1511 1509 1505 1482 1475 1475 1477 1475 1474 1472 1470 1469 1469 1467 1466 1465 1464 1464 1463 1463 1462 1461 1460 1459 1458 1457 1456 1454 1453 1452 1451 1450 1449 1448 1447 1447 1445 1444 1443 1441 1440
1500 1505 1509 1510 1508 1495 1480 1473 1472 1474 1472 1469 1469 1467 1467 1466 1464 1462 1462 1461 1460 1460 1459 1458 1457 1456 1454 1453 1452 1450 1449 1448 1447 1446 1445 1444 1443 1442 1442 1441 1439 1438 1437 1436
1498 1500 1506 1505 1503 1494 1474 1470 1468 1471 1472 1465 1465 1464 1464 1464 1466 1461 1459 1458 1457 1456 1455 1454 1452 1451 1449 1448 1447 1445 1444 1443 1442 1441 1440 1439 1439 1438 1437 1436 1435 1434 1433 1432
1499 1501 1501 1499 1496 1484 1471 1468 1469 1475 1469 1463 1461 1461 1461 1461 1460 1458 1456 1455 1453 1452 1451 1449 1447 1446 1445 1443 1442 1440 1439 1437 1437 1436 1435 1434 1434 1433 1432 1431 1430 1429 1429 1428
1490 1494 1494 1493 1493 1481 1465 1466 1468 1465 1460 1459 1459 1458 1458 1457 1455 1454 1452 1451 1449 1447 1446 1444 1443 1441 1440 1438 1437 1435 1433 1433 1432 1431 1430 1429 1429 1428 1427 1426 1425 1425 1424 1423
1481 1479 1478 1478 1471 1462 1460 1459 1458 1458 1457 1456 1456 1455 1455 1453 1451 1449 1448 1446 1444 1443 1441 1440 1438 1436 1434 1433 1432 1430 1429 1428 1426 1425 1425 1424 1423 1423 1422 1421 1421 1420 1420 1419
1472 1470 1471 1470 1461 1457 1456 1456 1455 1455 1454 1452 1452 1451 1450 1448 1446 1445 1443 1441 1440 1438 1436 1434 1433 1431 1429 1428 1426 1425 1424 1423 1421 1420 1420 1419 1418 1417 1417 1416 1416 1416 1416 1415
1465 1466 1466 1462 1456 1454 1451 1450 1450 1450 1449 1448 1447 1446 1445 1443 1441 1440 1438 1436 1435 1433 1431 1429 1428 1425 1424 1422 1421 1420 1419 1418 1416 1415 1414 1414 1413 1413 1412 1412 1412 1412 1412 1412
1457 1458 1459 1453 1449 1449 1446 1445 1445 1444 1442 1442 1440 1439 1438 1437 1436 1434 1433 1431 1429 1428 1426 1424 1422 1421 1419 1417 1416 1415 1414 1412 1411 1410 1409 1409 1409 1408 1408 1407 1407 1407 1408 1408